contact:dominique.lefevre@mio.osupytheas.fr, maurice.libes@osupytheas.fr, didier.mallarino@osupytheas.fr
Project:EMSO http://www.emso-fr.org/EMSO-France
Depth: 2436.0 m
Title:EMSO Ligure Ouest : Data MII capteur CSTAR
DateTime,Latitude,Longitude,Instrument_Serial,Reference_Counts,Signal_Counts,Corrected_Signal_raw_counts,Calculated_Beam_c_inverse_meters,Internal_thermistor_counts
DateTime,Latitude,Longitude,Instrument_Serial,Reference_Counts,Signal_Counts,Corrected_Signal_raw_counts,Calculated_Beam_c_inverse_meters,Internal_thermistor_counts
2019-07-23T00:01:19,42.805,6.029,CST-1368DR,8570,11989,15459,0.040,551
2019-07-23T00:04:21,42.805,6.029,CST-1368DR,8570,11989,15458,0.041,551
2019-07-23T00:07:23,42.805,6.029,CST-1368DR,8570,11988,15458,0.041,551
2019-07-23T00:10:24,42.805,6.029,CST-1368DR,8570,11989,15458,0.041,551
2019-07-23T00:13:26,42.805,6.029,CST-1368DR,8570,11986,15455,0.041,551
2019-07-23T00:16:27,42.805,6.029,CST-1368DR,8570,11989,15458,0.041,551
2019-07-23T00:19:29,42.805,6.029,CST-1368DR,8570,11989,15459,0.040,551
2019-07-23T00:22:31,42.805,6.029,CST-1368DR,8570,11989,15459,0.040,551
2019-07-23T00:25:32,42.805,6.029,CST-1368DR,8569,11988,15459,0.040,551
2019-07-23T00:28:34,42.805,6.029,CST-1368DR,8569,11989,15460,0.040,551
2019-07-23T00:31:36,42.805,6.029,CST-1368DR,8569,11989,15460,0.040,551
2019-07-23T00:34:37,42.805,6.029,CST-1368DR,8569,11989,15461,0.040,550
2019-07-23T00:37:39,42.805,6.029,CST-1368DR,8569,11988,15459,0.040,551
2019-07-23T00:40:41,42.805,6.029,CST-1368DR,8569,11988,15459,0.040,551
2019-07-23T00:43:42,42.805,6.029,CST-1368DR,8569,11989,15460,0.040,551
2019-07-23T00:46:44,42.805,6.029,CST-1368DR,8569,11986,15457,0.041,551
2019-07-23T00:49:45,42.805,6.029,CST-1368DR,8569,11987,15458,0.041,550
2019-07-23T00:52:47,42.805,6.029,CST-1368DR,8569,11988,15460,0.040,551
2019-07-23T00:55:49,42.805,6.029,CST-1368DR,8569,11987,15458,0.041,551
2019-07-23T00:58:50,42.805,6.029,CST-1368DR,8569,11988,15459,0.040,551
2019-07-23T01:01:52,42.805,6.029,CST-1368DR,8569,11986,15457,0.041,551
2019-07-23T01:04:54,42.805,6.029,CST-1368DR,8569,11985,15455,0.041,551
2019-07-23T01:07:55,42.805,6.029,CST-1368DR,8569,11988,15459,0.040,551
2019-07-23T01:10:57,42.805,6.029,CST-1368DR,8569,11989,15460,0.040,551
2019-07-23T01:13:58,42.805,6.029,CST-1368DR,8569,11986,15457,0.041,551
2019-07-23T01:17:00,42.805,6.029,CST-1368DR,8569,11988,15459,0.040,551
2019-07-23T01:20:02,42.805,6.029,CST-1368DR,8569,11986,15456,0.041,551
2019-07-23T01:23:03,42.805,6.029,CST-1368DR,8569,11989,15460,0.040,551
2019-07-23T01:26:05,42.805,6.029,CST-1368DR,8569,11986,15457,0.041,551
2019-07-23T01:29:07,42.805,6.029,CST-1368DR,8569,11988,15460,0.040,551
2019-07-23T01:32:08,42.805,6.029,CST-1368DR,8569,11989,15460,0.040,550
2019-07-23T01:35:10,42.805,6.029,CST-1368DR,8569,11988,15459,0.040,551
2019-07-23T01:38:12,42.805,6.029,CST-1368DR,8569,11965,15430,0.048,551
2019-07-23T01:41:13,42.805,6.029,CST-1368DR,8569,11982,15451,0.042,550
2019-07-23T01:44:15,42.805,6.029,CST-1368DR,8569,11987,15458,0.041,551
2019-07-23T01:47:16,42.805,6.029,CST-1368DR,8569,11988,15459,0.040,551
2019-07-23T01:50:18,42.805,6.029,CST-1368DR,8569,11987,15457,0.041,551
2019-07-23T01:53:20,42.805,6.029,CST-1368DR,8569,11987,15458,0.041,551
2019-07-23T01:56:22,42.805,6.029,CST-1368DR,8569,11988,15459,0.040,551
2019-07-23T01:59:23,42.805,6.029,CST-1368DR,8569,11987,15457,0.041,551
2019-07-23T02:02:25,42.805,6.029,CST-1368DR,8569,11988,15460,0.040,551
2019-07-23T02:05:27,42.805,6.029,CST-1368DR,8569,11985,15455,0.041,551
2019-07-23T02:08:28,42.805,6.029,CST-1368DR,8569,11988,15459,0.040,551
2019-07-23T02:11:30,42.805,6.029,CST-1368DR,8569,11988,15459,0.040,551
2019-07-23T02:14:31,42.805,6.029,CST-1368DR,8569,11988,15459,0.040,551
2019-07-23T02:17:33,42.805,6.029,CST-1368DR,8569,11986,15457,0.041,551
2019-07-23T02:20:35,42.805,6.029,CST-1368DR,8569,11987,15457,0.041,551
2019-07-23T02:23:36,42.805,6.029,CST-1368DR,8569,11985,15455,0.041,551
2019-07-23T02:26:38,42.805,6.029,CST-1368DR,8569,11987,15458,0.041,551
2019-07-23T02:29:40,42.805,6.029,CST-1368DR,8568,11986,15458,0.041,551
2019-07-23T02:32:41,42.805,6.029,CST-1368DR,8568,11988,15460,0.040,551
2019-07-23T02:35:43,42.805,6.029,CST-1368DR,8568,11987,15459,0.040,551
2019-07-23T02:38:45,42.805,6.029,CST-1368DR,8568,11988,15460,0.040,551
2019-07-23T02:41:46,42.805,6.029,CST-1368DR,8569,11987,15457,0.041,551
2019-07-23T02:44:48,42.805,6.029,CST-1368DR,8568,11987,15460,0.040,551
2019-07-23T02:47:50,42.805,6.029,CST-1368DR,8568,11988,15461,0.040,551
2019-07-23T02:50:52,42.805,6.029,CST-1368DR,8568,11988,15461,0.040,551
2019-07-23T02:53:53,42.805,6.029,CST-1368DR,8568,11987,15460,0.040,551
2019-07-23T02:56:55,42.805,6.029,CST-1368DR,8568,11987,15459,0.040,551
2019-07-23T02:59:56,42.805,6.029,CST-1368DR,8568,11986,15458,0.041,551
2019-07-23T03:02:58,42.805,6.029,CST-1368DR,8568,11987,15460,0.040,551
2019-07-23T03:06:00,42.805,6.029,CST-1368DR,8568,11988,15461,0.040,551
2019-07-23T03:09:01,42.805,6.029,CST-1368DR,8568,11984,15456,0.041,551
2019-07-23T03:12:03,42.805,6.029,CST-1368DR,8568,11986,15458,0.041,551
2019-07-23T03:15:05,42.805,6.029,CST-1368DR,8568,11986,15458,0.041,551
2019-07-23T03:18:06,42.805,6.029,CST-1368DR,8568,11986,15458,0.041,551
2019-07-23T03:21:08,42.805,6.029,CST-1368DR,8568,11986,15458,0.041,551
2019-07-23T03:24:09,42.805,6.029,CST-1368DR,8568,11988,15460,0.040,551
2019-07-23T03:27:11,42.805,6.029,CST-1368DR,8568,11987,15459,0.040,551
2019-07-23T03:30:13,42.805,6.029,CST-1368DR,8568,11984,15456,0.041,551
2019-07-23T03:33:14,42.805,6.029,CST-1368DR,8568,11986,15458,0.041,551
2019-07-23T03:36:16,42.805,6.029,CST-1368DR,8568,11986,15459,0.040,551
2019-07-23T03:39:18,42.805,6.029,CST-1368DR,8568,11985,15458,0.041,551
2019-07-23T03:42:19,42.805,6.029,CST-1368DR,8568,11984,15456,0.041,551
2019-07-23T03:45:21,42.805,6.029,CST-1368DR,8568,11987,15459,0.040,550
2019-07-23T03:48:23,42.805,6.029,CST-1368DR,8568,11976,15446,0.044,551
2019-07-23T03:51:24,42.805,6.029,CST-1368DR,8568,11986,15458,0.041,550
2019-07-23T03:54:26,42.805,6.029,CST-1368DR,8568,11985,15457,0.041,551
2019-07-23T03:57:28,42.805,6.029,CST-1368DR,8567,11985,15459,0.040,551
2019-07-23T04:00:29,42.805,6.029,CST-1368DR,8567,11985,15459,0.040,551
2019-07-23T04:03:31,42.805,6.029,CST-1368DR,8567,11986,15460,0.040,551
2019-07-23T04:06:33,42.805,6.029,CST-1368DR,8568,11986,15458,0.041,551
2019-07-23T04:09:34,42.805,6.029,CST-1368DR,8567,11986,15460,0.040,551
2019-07-23T04:12:36,42.805,6.029,CST-1368DR,8567,11987,15461,0.040,551
2019-07-23T04:15:37,42.805,6.029,CST-1368DR,8567,11985,15459,0.040,551
2019-07-23T04:18:39,42.805,6.029,CST-1368DR,8567,11983,15457,0.041,550
2019-07-23T04:21:41,42.805,6.029,CST-1368DR,8567,11986,15460,0.040,551
2019-07-23T04:24:42,42.805,6.029,CST-1368DR,8567,11986,15460,0.040,551
2019-07-23T04:27:44,42.805,6.029,CST-1368DR,8567,11986,15460,0.040,550
2019-07-23T04:30:46,42.805,6.029,CST-1368DR,8567,11986,15460,0.040,551
2019-07-23T04:33:47,42.805,6.029,CST-1368DR,8567,11985,15459,0.040,551
2019-07-23T04:36:49,42.805,6.029,CST-1368DR,8567,11986,15460,0.040,551
2019-07-23T04:39:51,42.805,6.029,CST-1368DR,8567,11975,15446,0.044,551
2019-07-23T04:42:52,42.805,6.029,CST-1368DR,8567,11986,15460,0.040,551
2019-07-23T04:45:54,42.805,6.029,CST-1368DR,8567,11986,15460,0.040,551
2019-07-23T04:48:56,42.805,6.029,CST-1368DR,8567,11985,15459,0.040,551
2019-07-23T04:51:57,42.805,6.029,CST-1368DR,8567,11976,15447,0.044,551
2019-07-23T04:54:59,42.805,6.029,CST-1368DR,8567,11986,15460,0.040,551
2019-07-23T04:58:00,42.805,6.029,CST-1368DR,8567,11987,15461,0.040,551
2019-07-23T05:01:02,42.805,6.029,CST-1368DR,8567,11986,15460,0.040,551
2019-07-23T05:04:04,42.805,6.029,CST-1368DR,8567,11985,15459,0.040,551
2019-07-23T05:07:05,42.805,6.029,CST-1368DR,8567,11986,15460,0.040,551
2019-07-23T05:10:07,42.805,6.029,CST-1368DR,8567,11987,15461,0.040,551
2019-07-23T05:13:09,42.805,6.029,CST-1368DR,8567,11986,15460,0.040,551
2019-07-23T05:16:10,42.805,6.029,CST-1368DR,8567,11986,15460,0.040,551
2019-07-23T05:19:12,42.805,6.029,CST-1368DR,8567,11987,15461,0.040,551
2019-07-23T05:22:13,42.805,6.029,CST-1368DR,8567,11985,15458,0.041,550
2019-07-23T05:25:15,42.805,6.029,CST-1368DR,8567,11987,15461,0.040,551
2019-07-23T05:28:17,42.805,6.029,CST-1368DR,8567,11986,15460,0.040,551
2019-07-23T05:31:18,42.805,6.029,CST-1368DR,8567,11987,15461,0.040,551
2019-07-23T05:34:20,42.805,6.029,CST-1368DR,8567,11985,15459,0.040,551
2019-07-23T05:37:22,42.805,6.029,CST-1368DR,8567,11986,15460,0.040,551
2019-07-23T05:40:23,42.805,6.029,CST-1368DR,8567,11987,15461,0.040,551
2019-07-23T05:43:25,42.805,6.029,CST-1368DR,8567,11985,15459,0.040,551
2019-07-23T05:46:26,42.805,6.029,CST-1368DR,8567,11985,15459,0.040,551
2019-07-23T05:49:28,42.805,6.029,CST-1368DR,8567,11986,15460,0.040,551
2019-07-23T05:52:30,42.805,6.029,CST-1368DR,8566,11980,15454,0.042,550
2019-07-23T05:55:31,42.805,6.029,CST-1368DR,8566,11985,15461,0.040,551
2019-07-23T05:58:33,42.805,6.029,CST-1368DR,8566,11985,15461,0.040,551
2019-07-23T06:01:34,42.805,6.029,CST-1368DR,8567,11986,15460,0.040,551
2019-07-23T06:04:36,42.805,6.029,CST-1368DR,8567,11986,15460,0.040,550
2019-07-23T06:07:38,42.805,6.029,CST-1368DR,8567,11986,15460,0.040,550
2019-07-23T06:10:39,42.805,6.029,CST-1368DR,8567,11986,15460,0.040,551
2019-07-23T06:13:41,42.805,6.029,CST-1368DR,8567,11984,15458,0.041,551
2019-07-23T06:16:43,42.805,6.029,CST-1368DR,8567,11985,15459,0.040,551
2019-07-23T06:19:44,42.805,6.029,CST-1368DR,8566,11986,15461,0.040,551
2019-07-23T06:22:46,42.805,6.029,CST-1368DR,8566,11986,15461,0.040,551
2019-07-23T06:25:48,42.805,6.029,CST-1368DR,8566,11986,15461,0.040,551
2019-07-23T06:28:49,42.805,6.029,CST-1368DR,8566,11985,15461,0.040,551
2019-07-23T06:31:51,42.805,6.029,CST-1368DR,8566,11985,15460,0.040,551
2019-07-23T06:34:53,42.805,6.029,CST-1368DR,8566,11986,15461,0.040,551
2019-07-23T06:37:54,42.805,6.029,CST-1368DR,8566,11985,15460,0.040,551
2019-07-23T06:40:56,42.805,6.029,CST-1368DR,8566,11980,15454,0.042,551
2019-07-23T06:43:57,42.805,6.029,CST-1368DR,8566,11986,15462,0.040,551
2019-07-23T06:46:59,42.805,6.029,CST-1368DR,8566,11986,15461,0.040,551
2019-07-23T06:50:01,42.805,6.029,CST-1368DR,8566,11985,15460,0.040,551
2019-07-23T06:53:02,42.805,6.029,CST-1368DR,8566,11986,15461,0.040,551
2019-07-23T06:56:04,42.805,6.029,CST-1368DR,8566,11985,15460,0.040,551
2019-07-23T06:59:06,42.805,6.029,CST-1368DR,8566,11983,15458,0.041,551
2019-07-23T07:02:07,42.805,6.029,CST-1368DR,8566,11985,15461,0.040,551
2019-07-23T07:05:09,42.805,6.029,CST-1368DR,8566,11985,15461,0.040,550
2019-07-23T07:08:10,42.805,6.029,CST-1368DR,8566,11984,15459,0.040,551
2019-07-23T07:11:12,42.805,6.029,CST-1368DR,8566,11985,15460,0.040,551
2019-07-23T07:14:14,42.805,6.029,CST-1368DR,8566,11984,15459,0.040,550
2019-07-23T07:17:15,42.805,6.029,CST-1368DR,8566,11982,15457,0.041,551
2019-07-23T07:20:17,42.805,6.029,CST-1368DR,8566,11984,15460,0.040,551
2019-07-23T07:23:19,42.805,6.029,CST-1368DR,8566,11985,15461,0.040,551
2019-07-23T07:26:20,42.805,6.029,CST-1368DR,8566,11985,15460,0.040,550
2019-07-23T07:29:22,42.805,6.029,CST-1368DR,8566,11985,15460,0.040,550
2019-07-23T07:32:23,42.805,6.029,CST-1368DR,8566,11985,15461,0.040,551
2019-07-23T07:35:25,42.805,6.029,CST-1368DR,8566,11986,15461,0.040,551
2019-07-23T07:38:27,42.805,6.029,CST-1368DR,8566,11983,15458,0.041,551
2019-07-23T07:41:28,42.805,6.029,CST-1368DR,8566,11985,15461,0.040,551
2019-07-23T07:44:30,42.805,6.029,CST-1368DR,8566,11984,15459,0.040,551
2019-07-23T07:47:32,42.805,6.029,CST-1368DR,8566,11985,15460,0.040,551
2019-07-23T07:50:34,42.805,6.029,CST-1368DR,8566,11985,15460,0.040,550
2019-07-23T07:53:35,42.805,6.029,CST-1368DR,8566,11985,15460,0.040,551
2019-07-23T07:56:37,42.805,6.029,CST-1368DR,8566,11984,15460,0.040,550
2019-07-23T07:59:38,42.805,6.029,CST-1368DR,8566,11984,15459,0.040,551
2019-07-23T08:02:40,42.805,6.029,CST-1368DR,8566,11983,15458,0.041,551
2019-07-23T08:05:42,42.805,6.029,CST-1368DR,8566,11983,15458,0.041,551
2019-07-23T08:08:43,42.805,6.029,CST-1368DR,8566,11984,15459,0.040,551
2019-07-23T08:11:45,42.805,6.029,CST-1368DR,8566,11985,15460,0.040,551
2019-07-23T08:14:47,42.805,6.029,CST-1368DR,8565,11981,15457,0.041,551
2019-07-23T08:17:48,42.805,6.029,CST-1368DR,8565,11985,15462,0.040,551
2019-07-23T08:20:50,42.805,6.029,CST-1368DR,8565,11984,15461,0.040,551
2019-07-23T08:23:51,42.805,6.029,CST-1368DR,8565,11983,15459,0.040,551
2019-07-23T08:26:53,42.805,6.029,CST-1368DR,8565,11981,15457,0.041,551
2019-07-23T08:29:55,42.805,6.029,CST-1368DR,8565,11984,15461,0.040,550
2019-07-23T08:32:56,42.805,6.029,CST-1368DR,8565,11985,15462,0.040,551
2019-07-23T08:35:58,42.805,6.029,CST-1368DR,8565,11983,15460,0.040,550
2019-07-23T08:39:00,42.805,6.029,CST-1368DR,8565,11983,15459,0.040,550
2019-07-23T08:42:01,42.805,6.029,CST-1368DR,8565,11983,15459,0.040,551
2019-07-23T08:45:03,42.805,6.029,CST-1368DR,8565,11983,15459,0.040,551
2019-07-23T08:48:04,42.805,6.029,CST-1368DR,8565,11983,15459,0.040,551
2019-07-23T08:51:06,42.805,6.029,CST-1368DR,8565,11984,15460,0.040,551
2019-07-23T08:54:08,42.805,6.029,CST-1368DR,8565,11983,15459,0.040,551
2019-07-23T08:57:09,42.805,6.029,CST-1368DR,8565,11984,15460,0.040,551
2019-07-23T09:00:11,42.805,6.029,CST-1368DR,8565,11981,15457,0.041,551
2019-07-23T09:03:13,42.805,6.029,CST-1368DR,8565,11983,15460,0.040,551
2019-07-23T09:06:14,42.805,6.029,CST-1368DR,8565,11983,15459,0.040,551
2019-07-23T09:09:16,42.805,6.029,CST-1368DR,8565,11983,15460,0.040,550
2019-07-23T09:12:17,42.805,6.029,CST-1368DR,8565,11983,15460,0.040,550
2019-07-23T09:15:19,42.805,6.029,CST-1368DR,8565,11983,15459,0.040,551
2019-07-23T09:18:21,42.805,6.029,CST-1368DR,8565,11982,15458,0.041,551
2019-07-23T09:21:22,42.805,6.029,CST-1368DR,8565,11983,15459,0.040,551
2019-07-23T09:24:24,42.805,6.029,CST-1368DR,8565,11983,15459,0.040,551
2019-07-23T09:27:25,42.805,6.029,CST-1368DR,8565,11982,15459,0.040,551
2019-07-23T09:30:27,42.805,6.029,CST-1368DR,8565,11983,15459,0.040,551
2019-07-23T09:33:29,42.805,6.029,CST-1368DR,8565,11983,15460,0.040,551
2019-07-23T09:36:30,42.805,6.029,CST-1368DR,8565,11982,15458,0.041,550
2019-07-23T09:39:32,42.805,6.029,CST-1368DR,8565,11982,15458,0.041,551
2019-07-23T09:42:34,42.805,6.029,CST-1368DR,8565,11982,15458,0.041,551
2019-07-23T09:45:35,42.805,6.029,CST-1368DR,8565,11981,15457,0.041,551
2019-07-23T09:48:37,42.805,6.029,CST-1368DR,8565,11982,15458,0.041,550
2019-07-23T09:51:38,42.805,6.029,CST-1368DR,8565,11980,15455,0.041,551
2019-07-23T09:54:40,42.805,6.029,CST-1368DR,8565,11982,15458,0.041,550
2019-07-23T09:57:42,42.805,6.029,CST-1368DR,8564,11982,15460,0.040,551
2019-07-23T10:00:44,42.805,6.029,CST-1368DR,8565,11983,15459,0.040,551
2019-07-23T10:03:45,42.805,6.029,CST-1368DR,8564,11976,15452,0.042,551
2019-07-23T10:06:47,42.805,6.029,CST-1368DR,8564,11979,15456,0.041,551
2019-07-23T10:09:48,42.805,6.029,CST-1368DR,8564,11981,15459,0.040,551
2019-07-23T10:12:50,42.805,6.029,CST-1368DR,8564,11980,15457,0.041,551
2019-07-23T10:15:52,42.805,6.029,CST-1368DR,8564,11979,15456,0.041,551
2019-07-23T10:18:53,42.805,6.029,CST-1368DR,8564,11980,15457,0.041,551
2019-07-23T10:21:55,42.805,6.029,CST-1368DR,8564,11982,15460,0.040,551
2019-07-23T10:24:56,42.805,6.029,CST-1368DR,8564,11982,15459,0.040,551
2019-07-23T10:27:58,42.805,6.029,CST-1368DR,8564,11981,15458,0.041,551
2019-07-23T10:31:00,42.805,6.029,CST-1368DR,8564,11980,15457,0.041,551
2019-07-23T10:34:01,42.805,6.029,CST-1368DR,8564,11982,15459,0.040,551
2019-07-23T10:37:03,42.805,6.029,CST-1368DR,8564,11977,15453,0.042,551
2019-07-23T10:40:05,42.805,6.029,CST-1368DR,8564,11970,15444,0.044,550
2019-07-23T10:43:07,42.805,6.029,CST-1368DR,8564,11981,15459,0.040,551
2019-07-23T10:46:08,42.805,6.029,CST-1368DR,8564,11980,15458,0.041,551
2019-07-23T10:49:10,42.805,6.029,CST-1368DR,8564,11980,15457,0.041,551
2019-07-23T10:52:11,42.805,6.029,CST-1368DR,8564,11981,15458,0.041,551
2019-07-23T10:55:13,42.805,6.029,CST-1368DR,8564,11981,15459,0.040,551
2019-07-23T10:58:15,42.805,6.029,CST-1368DR,8564,11980,15457,0.041,551
2019-07-23T11:01:16,42.805,6.029,CST-1368DR,8564,11980,15457,0.041,551
2019-07-23T11:04:18,42.805,6.029,CST-1368DR,8564,11980,15457,0.041,550
2019-07-23T11:07:20,42.805,6.029,CST-1368DR,8564,11980,15457,0.041,551
2019-07-23T11:10:21,42.805,6.029,CST-1368DR,8564,11980,15458,0.041,551
2019-07-23T11:13:23,42.805,6.029,CST-1368DR,8564,11980,15457,0.041,551
2019-07-23T11:16:25,42.805,6.029,CST-1368DR,8564,11979,15456,0.041,551
2019-07-23T11:19:26,42.805,6.029,CST-1368DR,8564,11981,15459,0.040,551
2019-07-23T11:22:28,42.805,6.029,CST-1368DR,8564,11980,15457,0.041,551
2019-07-23T11:25:30,42.805,6.029,CST-1368DR,8564,11982,15459,0.040,551
2019-07-23T11:28:31,42.805,6.029,CST-1368DR,8564,11980,15457,0.041,551
2019-07-23T11:31:33,42.805,6.029,CST-1368DR,8564,11980,15457,0.041,551
2019-07-23T11:34:34,42.805,6.029,CST-1368DR,8564,11980,15457,0.041,551
2019-07-23T11:37:36,42.805,6.029,CST-1368DR,8564,11980,15457,0.041,551
2019-07-23T11:40:38,42.805,6.029,CST-1368DR,8564,11981,15459,0.040,551
2019-07-23T11:43:39,42.805,6.029,CST-1368DR,8564,11981,15459,0.040,551
2019-07-23T11:46:41,42.805,6.029,CST-1368DR,8564,11979,15456,0.041,551
2019-07-23T11:49:43,42.805,6.029,CST-1368DR,8563,11977,15455,0.041,551
2019-07-23T11:52:44,42.805,6.029,CST-1368DR,8564,11979,15456,0.041,551
2019-07-23T11:55:46,42.805,6.029,CST-1368DR,8563,11980,15459,0.040,551
2019-07-23T11:58:48,42.805,6.029,CST-1368DR,8564,11980,15457,0.041,551
2019-07-23T12:01:49,42.805,6.029,CST-1368DR,8563,11978,15456,0.041,551
2019-07-23T12:04:51,42.805,6.029,CST-1368DR,8563,11980,15459,0.040,551
2019-07-23T12:07:52,42.805,6.029,CST-1368DR,8563,11979,15458,0.041,551
2019-07-23T12:10:54,42.805,6.029,CST-1368DR,8563,11979,15457,0.041,551
2019-07-23T12:13:56,42.805,6.029,CST-1368DR,8563,11979,15458,0.041,551
2019-07-23T12:16:57,42.805,6.029,CST-1368DR,8563,11979,15458,0.041,551
2019-07-23T12:19:59,42.805,6.029,CST-1368DR,8563,11978,15456,0.041,551
2019-07-23T12:23:01,42.805,6.029,CST-1368DR,8563,11979,15458,0.041,551
2019-07-23T12:26:02,42.805,6.029,CST-1368DR,8563,11980,15458,0.041,551
2019-07-23T12:29:04,42.805,6.029,CST-1368DR,8563,11977,15455,0.041,551
2019-07-23T12:32:05,42.805,6.029,CST-1368DR,8563,11979,15458,0.041,551
2019-07-23T12:35:07,42.805,6.029,CST-1368DR,8563,11979,15458,0.041,551
2019-07-23T12:38:09,42.805,6.029,CST-1368DR,8563,11978,15457,0.041,550
2019-07-23T12:41:10,42.805,6.029,CST-1368DR,8563,11979,15458,0.041,551
2019-07-23T12:44:12,42.805,6.029,CST-1368DR,8563,11980,15459,0.040,551
2019-07-23T12:47:14,42.805,6.029,CST-1368DR,8563,11978,15456,0.041,551
2019-07-23T12:50:15,42.805,6.029,CST-1368DR,8563,11978,15456,0.041,551
2019-07-23T12:53:17,42.805,6.029,CST-1368DR,8563,11979,15457,0.041,551
2019-07-23T12:56:19,42.805,6.029,CST-1368DR,8563,11978,15456,0.041,551
2019-07-23T12:59:20,42.805,6.029,CST-1368DR,8563,11979,15457,0.041,551
2019-07-23T13:02:22,42.805,6.029,CST-1368DR,8563,11979,15458,0.041,551
2019-07-23T13:05:24,42.805,6.029,CST-1368DR,8563,11978,15456,0.041,551
2019-07-23T13:08:25,42.805,6.029,CST-1368DR,8563,11979,15458,0.041,551
2019-07-23T13:11:27,42.805,6.029,CST-1368DR,8563,11977,15455,0.041,551
2019-07-23T13:14:29,42.805,6.029,CST-1368DR,8563,11978,15457,0.041,551
2019-07-23T13:17:30,42.805,6.029,CST-1368DR,8563,11979,15457,0.041,551
2019-07-23T13:20:32,42.805,6.029,CST-1368DR,8563,11977,15455,0.041,551
2019-07-23T13:23:33,42.805,6.029,CST-1368DR,8563,11978,15457,0.041,551
2019-07-23T13:26:35,42.805,6.029,CST-1368DR,8563,11979,15457,0.041,551
2019-07-23T13:29:37,42.805,6.029,CST-1368DR,8563,11978,15457,0.041,551
2019-07-23T13:32:39,42.805,6.029,CST-1368DR,8563,11979,15457,0.041,551
2019-07-23T13:35:40,42.805,6.029,CST-1368DR,8563,11979,15458,0.041,551
2019-07-23T13:38:42,42.805,6.029,CST-1368DR,8563,11978,15457,0.041,551
2019-07-23T13:41:43,42.805,6.029,CST-1368DR,8563,11978,15456,0.041,551
2019-07-23T13:44:45,42.805,6.029,CST-1368DR,8563,11978,15456,0.041,550
2019-07-23T13:47:47,42.805,6.029,CST-1368DR,8563,11979,15458,0.041,551
2019-07-23T13:50:48,42.805,6.029,CST-1368DR,8563,11979,15458,0.041,551
2019-07-23T13:53:50,42.805,6.029,CST-1368DR,8563,11978,15456,0.041,551
2019-07-23T13:56:52,42.805,6.029,CST-1368DR,8563,11979,15457,0.041,550
2019-07-23T13:59:53,42.805,6.029,CST-1368DR,8563,11978,15456,0.041,551
2019-07-23T14:02:55,42.805,6.029,CST-1368DR,8562,11978,15458,0.041,551
2019-07-23T14:05:56,42.805,6.029,CST-1368DR,8562,11978,15457,0.041,551
2019-07-23T14:08:58,42.805,6.029,CST-1368DR,8562,11978,15457,0.041,551
2019-07-23T14:12:00,42.805,6.029,CST-1368DR,8562,11978,15457,0.041,551
2019-07-23T14:15:01,42.805,6.029,CST-1368DR,8562,11978,15457,0.041,551
2019-07-23T14:18:03,42.805,6.029,CST-1368DR,8562,11978,15458,0.041,551
2019-07-23T14:21:05,42.805,6.029,CST-1368DR,8562,11979,15459,0.040,551
2019-07-23T14:24:06,42.805,6.029,CST-1368DR,8562,11978,15458,0.041,551
2019-07-23T14:27:08,42.805,6.029,CST-1368DR,8562,11976,15456,0.041,551
2019-07-23T14:30:10,42.805,6.029,CST-1368DR,8562,11976,15456,0.041,551
2019-07-23T14:33:11,42.805,6.029,CST-1368DR,8562,11978,15458,0.041,551
2019-07-23T14:36:13,42.805,6.029,CST-1368DR,8562,11978,15458,0.041,551
2019-07-23T14:39:14,42.805,6.029,CST-1368DR,8562,11978,15457,0.041,551
2019-07-23T14:42:16,42.805,6.029,CST-1368DR,8562,11972,15450,0.043,551
2019-07-23T14:45:18,42.805,6.029,CST-1368DR,8562,11979,15460,0.040,551
2019-07-23T14:48:20,42.805,6.029,CST-1368DR,8562,11978,15458,0.041,551
2019-07-23T14:51:21,42.805,6.029,CST-1368DR,8562,11979,15459,0.040,550
2019-07-23T14:54:23,42.805,6.029,CST-1368DR,8562,11978,15457,0.041,551
2019-07-23T14:57:25,42.805,6.029,CST-1368DR,8562,11976,15456,0.041,551
2019-07-23T15:00:26,42.805,6.029,CST-1368DR,8562,11973,15451,0.042,550
2019-07-23T15:03:28,42.805,6.029,CST-1368DR,8562,11978,15458,0.041,551
2019-07-23T15:06:30,42.805,6.029,CST-1368DR,8562,11978,15457,0.041,551
2019-07-23T15:09:31,42.805,6.029,CST-1368DR,8562,11976,15456,0.041,551
2019-07-23T15:12:33,42.805,6.029,CST-1368DR,8562,11978,15457,0.041,551
2019-07-23T15:15:35,42.805,6.029,CST-1368DR,8562,11978,15458,0.041,551
2019-07-23T15:18:36,42.805,6.029,CST-1368DR,8562,11977,15457,0.041,551
2019-07-23T15:21:38,42.805,6.029,CST-1368DR,8562,11977,15457,0.041,551
2019-07-23T15:24:40,42.805,6.029,CST-1368DR,8562,11978,15457,0.041,550
2019-07-23T15:27:41,42.805,6.029,CST-1368DR,8562,11978,15457,0.041,551
2019-07-23T15:30:43,42.805,6.029,CST-1368DR,8562,11978,15458,0.041,551
2019-07-23T15:33:45,42.805,6.029,CST-1368DR,8562,11978,15457,0.041,551
2019-07-23T15:36:46,42.805,6.029,CST-1368DR,8561,11976,15457,0.041,550
2019-07-23T15:39:48,42.805,6.029,CST-1368DR,8562,11977,15457,0.041,551
2019-07-23T15:42:49,42.805,6.029,CST-1368DR,8561,11978,15459,0.040,551
2019-07-23T15:45:51,42.805,6.029,CST-1368DR,8561,11977,15458,0.041,551
2019-07-23T15:48:53,42.805,6.029,CST-1368DR,8561,11975,15456,0.041,551
2019-07-23T15:51:55,42.805,6.029,CST-1368DR,8561,11975,15456,0.041,551
2019-07-23T15:54:56,42.805,6.029,CST-1368DR,8561,11976,15458,0.041,551
2019-07-23T15:57:58,42.805,6.029,CST-1368DR,8561,11978,15459,0.040,551
2019-07-23T16:01:00,42.805,6.029,CST-1368DR,8561,11976,15457,0.041,551
2019-07-23T16:04:01,42.805,6.029,CST-1368DR,8561,11976,15458,0.041,551
2019-07-23T16:07:03,42.805,6.029,CST-1368DR,8561,11977,15459,0.040,551
2019-07-23T16:10:04,42.805,6.029,CST-1368DR,8561,11973,15454,0.042,551
2019-07-23T16:13:06,42.805,6.029,CST-1368DR,8561,11976,15457,0.041,551
2019-07-23T16:16:08,42.805,6.029,CST-1368DR,8561,11976,15457,0.041,551
2019-07-23T16:19:09,42.805,6.029,CST-1368DR,8561,11976,15457,0.041,550
2019-07-23T16:22:11,42.805,6.029,CST-1368DR,8561,11974,15455,0.041,551
2019-07-23T16:25:13,42.805,6.029,CST-1368DR,8561,11976,15457,0.041,551
2019-07-23T16:28:14,42.805,6.029,CST-1368DR,8561,11977,15459,0.040,551
2019-07-23T16:31:16,42.805,6.029,CST-1368DR,8561,11975,15456,0.041,551
2019-07-23T16:34:18,42.805,6.029,CST-1368DR,8561,11975,15456,0.041,551
2019-07-23T16:37:19,42.805,6.029,CST-1368DR,8561,11976,15457,0.041,551